Location: Anaheim
(33.8350°N, 117.9140°W)
Time: 13:14:11
(UTC-07:00)

Amateur Radio Satellites - All Passes

Search period start: 30 July 2015 12:44
Search period end: 31 July 2015 12:44
Location: Anaheim, 33.8350°N, 117.9140°W

Satellite Date Start Highest point End Downlink Frequencies (MHz)
Time Altitude Azimuth
Cosmos 2491 30 Jul 12:46:33 12:55:20 82° 94° (E) 13:04:06 435.465 / 435.565
50 SAT 30 Jul 12:48:40 12:51:16 16° 290° (WNW) 12:53:41 437.505
SPROUT 30 Jul 13:02:56 13:07:14 78° 100° (E) 13:11:32 437.525
ITAMSAT 1 30 Jul 13:11:44 13:13:12 11° 65° (ENE) 13:15:00 435.822/435.867
TISAT 1 30 Jul 13:22:27 13:26:40 79° 101° (E) 13:30:53 437.305
SWISSCUBE 30 Jul 13:27:07 13:29:09 13° 91° (E) 13:31:29 437.505
AIST 1 30 Jul 13:28:38 13:31:50 19° 285° (WNW) 13:34:52
Oscar 19 30 Jul 13:30:10 13:35:15 75° 75° (ENE) 13:40:22 437.125/150
O/OREOS (USA 219) 30 Jul 13:45:49 13:46:40 10° 260° (W) 13:47:11 437.305
ITUPSAT 1 30 Jul 13:46:03 13:49:24 19° 93° (E) 13:52:54 437.325
Cosmos 2504 30 Jul 13:52:50 14:00:49 46° 78° (ENE) 14:09:03 435.465 / 435.565
Gurwin Techsat 1B 30 Jul 14:14:06 14:19:16 57° 74° (ENE) 14:24:30 435.225
AO-7 30 Jul 14:14:06 14:18:49 17° 57° (ENE) 14:24:00 29.400- 29.500
YUBILEINY 30 Jul 14:19:22 14:23:51 14° 279° (W) 14:27:37 435.215
BEESAT 30 Jul 14:42:19 14:47:07 86° 103° (ESE) 14:51:53 436.000
ITAMSAT 1 30 Jul 14:46:56 14:52:09 76° 258° (WSW) 14:57:24 435.822/435.867
Cosmos 2491 30 Jul 14:47:44 14:53:24 17° 295° (WNW) 14:58:30 435.465 / 435.565
JAS-2 30 Jul 15:01:31 15:07:10 53° 72° (ENE) 15:13:36 435.910
SWISSCUBE 30 Jul 15:02:44 15:07:22 51° 286° (WNW) 15:11:57 437.505
CUSAT 1 30 Jul 15:08:39 15:12:28 31° 80° (E) 15:17:23 437.405
ITUPSAT 1 30 Jul 15:23:03 15:27:24 35° 288° (WNW) 15:31:41 437.325
STARS 30 Jul 15:41:32 15:45:31 33° 97° (E) 15:49:33 437.465
Cosmos 2504 30 Jul 15:45:26 15:52:49 33° 273° (W) 16:00:06 435.465 / 435.565
Gurwin Techsat 1B 30 Jul 15:56:44 15:59:41 14° 269° (W) 16:02:19 435.225
AO-7 30 Jul 16:02:17 16:10:40 88° 73° (ENE) 16:19:05 29.400- 29.500
KKS-1 30 Jul 16:03:32 16:08:00 75° 284° (WNW) 16:12:27 437.445
HORYU 2 30 Jul 16:03:37 16:08:03 89° 78° (ENE) 16:12:32 437.375
DANDE 30 Jul 16:17:53 16:21:43 71° 262° (W) 16:26:55 436.750
MOZHAYETS 4 30 Jul 16:41:43 16:45:45 30° 96° (E) 16:49:48
JAS-2 30 Jul 16:48:40 16:52:52 19° 272° (W) 16:57:06 435.910
CUSAT 1 30 Jul 16:51:34 16:54:59 20° 263° (W) 16:58:53 437.405
GONETS M04 30 Jul 17:00:35 17:08:28 38° 75° (ENE) 17:16:32
STARS 30 Jul 17:18:40 17:21:45 18° 290° (WNW) 17:24:41 437.465
CUTE-I 30 Jul 17:41:33 17:46:08 31° 70° (ENE) 17:50:50 437.470
VERMONT LUNAR 30 Jul 17:47:08 17:49:38 22° 146° (SE) 17:52:12 437.305
Cosmos 2499 30 Jul 17:57:46 18:03:44 21° 68° (ENE) 18:10:14 435.465 / 435.565
AO-7 30 Jul 17:59:49 18:04:33 15° 270° (W) 18:08:40 29.400- 29.500
MOZHAYETS 4 30 Jul 18:19:15 18:22:49 22° 290° (WNW) 18:26:15
Cubesat XI-IV 30 Jul 18:24:09 18:29:31 82° 77° (ENE) 18:34:55 437.490
CUBESAT XI-V 30 Jul 18:30:51 18:35:04 36° 97° (E) 18:39:18 437.345
SO-50 30 Jul 18:39:05 18:43:40 37° 55° (NE) 18:48:11 436.795
GONETS M04 30 Jul 18:57:24 19:05:19 39° 271° (W) 19:13:08
PCSat 30 Jul 19:06:45 19:12:09 66° 62° (ENE) 19:17:31 145.827
PHONESAT 2.4 30 Jul 19:11:32 19:13:28 14° 142° (SE) 19:15:30 2401.200-2431.200
CUTE-I 30 Jul 19:21:35 19:26:12 28° 264° (W) 19:30:43 437.470
VERMONT LUNAR 30 Jul 19:23:05 19:26:13 57° 338° (NNW) 19:29:22 437.305
HO-68 30 Jul 19:28:48 19:34:13 25° 64° (ENE) 19:39:51 435.675
CUTE 1.7 + AOD 2 30 Jul 19:48:18 19:50:51 16° 70° (ENE) 19:53:36 437.475
SEEDS 30 Jul 19:48:54 19:50:41 13° 69° (ENE) 19:52:41 437.485
Cosmos 2499 30 Jul 19:49:03 19:57:49 75° 266° (W) 20:06:38 435.465 / 435.565
CANX-2 30 Jul 19:55:41 19:58:55 22° 71° (ENE) 20:02:17 2200.000
BRITE-PL 30 Jul 19:57:23 20:01:57 87° 81° (E) 20:06:14 437.365/2234.400
STRAND 1 30 Jul 19:58:16 20:03:23 88° 101° (E) 20:08:29 437.568
CUBESAT XI-V 30 Jul 20:09:05 20:12:16 18° 290° (WNW) 20:15:16 437.345
DOVE 4 30 Jul 20:13:13 20:17:07 39° 75° (ENE) 20:21:00 437.250
GOMX 1 30 Jul 20:16:34 20:20:54 80° 79° (E) 20:25:06 467.674
AAUSAT CUBESAT 2 30 Jul 20:18:16 20:21:06 19° 71° (ENE) 20:24:07 437.432
PRISM 30 Jul 20:18:50 20:22:53 55° 285° (WNW) 20:26:51 437.425
SO-50 30 Jul 20:20:15 20:23:59 21° 250° (WSW) 20:27:31 436.795
CINEMA 3 30 Jul 20:34:32 20:38:02 28° 72° (ENE) 20:41:38 145.822/145.860
PHONESAT 2.4 30 Jul 20:47:37 20:51:07 88° 158° (SSE) 20:54:39 2401.200-2431.200
ISS 30 Jul 20:47:42 20:50:41 35° 132° (SE) 20:53:42 145.825
PCSat 30 Jul 20:52:30 20:55:05 13° 255° (WSW) 20:57:18 145.827
VERMONT LUNAR 30 Jul 21:00:39 21:03:20 24° 355° (N) 21:06:00 437.305
UWE-3 30 Jul 21:03:58 21:07:04 21° 71° (ENE) 21:10:19 435.000/436.395/437.385
FUNcube-1 30 Jul 21:06:37 21:09:10 17° 70° (ENE) 21:11:55 145.935
COMPASS 1 30 Jul 21:09:23 21:13:35 84° 258° (WSW) 21:17:50 437.405
HO-68 30 Jul 21:14:35 21:21:33 55° 259° (W) 21:28:32 435.675
RS-15 30 Jul 21:14:47 21:25:10 56° 112° (ESE) 21:35:55 29.354- 29.394
CUBEBUG 2 30 Jul 21:15:27 21:19:16 37° 74° (ENE) 21:23:12 437.445
M-CUBED/EXP-1 PRIME 30 Jul 21:19:58 21:22:04 13° 94° (E) 21:24:24 437.505
Oscar 11 30 Jul 21:20:32 21:24:38 44° 74° (ENE) 21:28:48 145.826/435.025
SEEDS 30 Jul 21:22:03 21:26:07 44° 262° (W) 21:30:11 437.485
CUTE 1.7 + AOD 2 30 Jul 21:22:36 21:26:31 34° 263° (W) 21:30:25 437.475
CANX-2 30 Jul 21:31:12 21:34:45 25° 265° (W) 21:38:14 2200.000
HUMSAT D 30 Jul 21:43:28 21:46:12 18° 70° (ENE) 21:49:05 437.325/437.525
Cosmos 2499 30 Jul 21:47:01 21:49:53 11° 280° (W) 21:51:53 435.465 / 435.565
DELFI C3 30 Jul 21:49:05 21:53:05 65° 76° (ENE) 21:57:08 145.870
DX 1 30 Jul 21:49:08 21:51:39 16° 69° (ENE) 21:54:20 434.975-435.025
AUBIESAT-1 30 Jul 21:49:29 21:53:16 24° 99° (E) 21:57:03 437.475
AAUSAT CUBESAT 2 30 Jul 21:52:52 21:56:32 29° 264° (W) 22:00:10 437.432
DOVE 4 30 Jul 21:53:15 21:55:08 12° 269° (W) 21:56:46 437.250
VELOX 1 30 Jul 21:59:12 22:00:20 11° 67° (ENE) 22:01:45 145.980
CINEMA 3 30 Jul 22:12:27 22:15:19 17° 267° (W) 22:18:03 145.822/145.860
ZACube-1 30 Jul 22:18:41 22:22:47 60° 260° (W) 22:26:58 437.345
ISS 30 Jul 22:24:45 22:27:12 19° 327° (NNW) 22:29:37 145.825
PHONESAT 2.4 30 Jul 22:26:11 22:29:21 30° 350° (N) 22:32:30 2401.200-2431.200
TIGRISAT 30 Jul 22:28:14 22:31:23 18° 93° (E) 22:34:41 435.000
ANTELSAT 30 Jul 22:29:14 22:32:32 20° 93° (E) 22:36:01 437.575/2403.000
VERMONT LUNAR 30 Jul 22:37:44 22:40:35 29° 12° (NNE) 22:43:26 437.305
UWE-3 30 Jul 22:40:03 22:43:30 24° 265° (W) 22:46:55 435.000/436.395/437.385
FUNcube-1 30 Jul 22:41:31 22:45:16 32° 263° (W) 22:49:03 145.935
M-CUBED/EXP-1 PRIME 30 Jul 22:52:29 22:57:12 55° 290° (WNW) 23:01:46 437.505
QB50P1 30 Jul 22:52:36 22:53:23 11° 90° (E) 22:54:29 145.935-145.965
AISAT 30 Jul 22:52:43 22:56:58 50° 75° (ENE) 23:01:14 437.250
CUBEBUG 2 30 Jul 22:54:04 22:56:13 13° 269° (W) 22:58:08 437.445
NANOSAT C BR1 30 Jul 22:54:11 22:55:14 11° 91° (E) 22:56:35 145.865
UKube-1 30 Jul 22:57:22 23:01:41 87° 254° (WSW) 23:06:02 .
Oscar 11 30 Jul 22:59:08 23:01:06 12° 269° (W) 23:02:49 145.826/435.025
Cosmos 2491 30 Jul 23:02:27 23:10:00 33° 73° (ENE) 23:17:45 435.465 / 435.565
BEESAT 3 30 Jul 23:10:18 23:13:43 27° 113° (ESE) 23:17:14 437.485
CUBEBUG 1 30 Jul 23:11:37 23:15:44 43° 74° (ENE) 23:19:52 437.445
HUMSAT D 30 Jul 23:18:07 23:21:44 29° 264° (W) 23:25:21 437.325/437.525
UNISAT 6 30 Jul 23:19:38 23:24:21 74° 102° (ESE) 23:29:03 437.425
YUBILEINY 30 Jul 23:21:47 23:27:22 20° 84° (E) 23:33:28 435.215
DX 1 30 Jul 23:23:34 23:27:37 37° 262° (W) 23:31:39 434.975-435.025
AUBIESAT-1 30 Jul 23:23:46 23:27:56 30° 293° (WNW) 23:31:54 437.475
50 SAT 30 Jul 23:27:11 23:30:55 47° 261° (W) 23:34:43 437.505
RS-15 30 Jul 23:27:54 23:37:59 39° 313° (NW) 23:48:14 29.354- 29.394
VELOX 1 30 Jul 23:32:07 23:36:28 56° 260° (W) 23:40:49 145.980
POLYITAN 1 30 Jul 23:32:16 23:36:11 35° 98° (E) 23:40:08 437.675
ESTCUBE 1 30 Jul 23:37:50 23:42:21 74° 257° (WSW) 23:46:54 437.505/2401.250
AIST 1 30 Jul 23:38:18 23:42:34 70° 83° (E) 23:46:47
POPSAT HIP 1 30 Jul 23:49:43 23:53:54 57° 100° (E) 23:58:07 437.405
AIST 2 30 Jul 23:53:17 23:55:02 13° 109° (ESE) 23:57:01 435.215
SPROUT 30 Jul 23:53:23 23:57:14 35° 74° (ENE) 00:01:09 437.525
QB50P2 30 Jul 23:56:57 00:01:14 75° 102° (ESE) 00:05:29 145.880/145.840
BUGSAT 1 31 Jul 00:01:32 00:05:27 45° 99° (E) 00:09:25 437.445
TIGRISAT 31 Jul 00:03:55 00:08:14 37° 287° (WNW) 00:12:31 435.000
PHONESAT 2.4 31 Jul 00:04:46 00:07:52 28° 7° (N) 00:10:58 2401.200-2431.200
ANTELSAT 31 Jul 00:05:08 00:09:24 34° 287° (WNW) 00:13:37 437.575/2403.000
BEESAT 2 31 Jul 00:05:23 00:09:28 84° 297° (WNW) 00:13:36 435.950
TISAT 1 31 Jul 00:10:54 00:14:38 33° 73° (ENE) 00:18:26 437.305
VERMONT LUNAR 31 Jul 00:14:21 00:17:30 69° 208° (SSW) 00:20:36 437.305
DUCHIFAT 1 31 Jul 00:23:15 00:27:25 55° 284° (WNW) 00:31:33 145.980
QB50P1 31 Jul 00:25:28 00:29:35 49° 285° (WNW) 00:33:42 145.935-145.965
NANOSAT C BR1 31 Jul 00:27:17 00:31:23 48° 285° (WNW) 00:35:29 145.865
SWISSCUBE 31 Jul 00:31:42 00:32:30 11° 66° (ENE) 00:33:36 437.505
AISAT 31 Jul 00:32:19 00:33:53 11° 269° (W) 00:35:09 437.250
O/OREOS (USA 219) 31 Jul 00:36:46 00:36:52 10° 100° (E) 00:37:18 437.305
BEESAT 3 31 Jul 00:48:27 00:51:39 21° 308° (NW) 00:54:48 437.485
ITUPSAT 1 31 Jul 00:49:57 00:52:40 16° 68° (ENE) 00:55:36 437.325
CUBEBUG 1 31 Jul 00:50:11 00:52:20 13° 269° (W) 00:54:15 437.445
Cosmos 2491 31 Jul 00:58:54 01:07:04 45° 270° (W) 01:15:06 435.465 / 435.565
POLYITAN 1 31 Jul 01:09:07 01:11:50 16° 290° (WNW) 01:14:22 437.675
YUBILEINY 31 Jul 01:14:49 01:23:28 70° 279° (W) 01:32:12 435.215
POPSAT HIP 1 31 Jul 01:28:46 01:29:21 10° 292° (WNW) 01:29:40 437.405
AIST 2 31 Jul 01:29:09 01:33:14 47° 302° (WNW) 01:37:22 435.215
SPROUT 31 Jul 01:30:51 01:33:28 15° 268° (W) 01:35:54 437.525
BUGSAT 1 31 Jul 01:39:07 01:40:35 11° 291° (WNW) 01:41:48 437.445
PHONESAT 2.4 31 Jul 01:42:39 01:46:09 77° 23° (NNE) 01:49:37 2401.200-2431.200
BEESAT 31 Jul 01:44:45 01:49:28 63° 75° (ENE) 01:54:13 436.000
Oscar 19 31 Jul 01:45:54 01:50:37 36° 97° (E) 01:55:24 437.125/150
TISAT 1 31 Jul 01:47:58 01:50:32 15° 267° (W) 01:52:56 437.305
RS-15 31 Jul 01:50:30 01:55:09 13° 345° (NNW) 01:59:30 29.354- 29.394
SWISSCUBE 31 Jul 02:05:03 02:09:50 71° 259° (W) 02:14:38 437.505
O/OREOS (USA 219) 31 Jul 02:11:28 02:15:50 55° 291° (WNW) 02:20:16 437.305
JAS-2 31 Jul 02:19:09 02:20:15 11° 84° (E) 02:22:08 435.910
Cosmos 2504 31 Jul 02:19:39 02:25:42 33° 87° (E) 02:32:13 435.465 / 435.565
ITUPSAT 1 31 Jul 02:25:35 02:30:13 47° 261° (W) 02:34:51 437.325
Gurwin Techsat 1B 31 Jul 02:34:38 02:39:16 31° 96° (E) 02:43:59 435.225
STARS 31 Jul 02:35:31 02:38:29 19° 70° (ENE) 02:41:36 437.465
KKS-1 31 Jul 02:57:40 03:02:00 60° 76° (ENE) 03:06:22 437.445
ITAMSAT 1 31 Jul 03:03:51 03:08:55 53° 100° (E) 03:13:58 435.822/435.867
ISS 31 Jul 03:19:49 03:20:41 11° 26° (NNE) 03:21:38 145.825
YUBILEINY 31 Jul 03:21:06 03:22:20 10° 300° (WNW) 03:22:41 435.215
PHONESAT 2.4 31 Jul 03:21:26 03:23:51 18° 217° (SW) 03:26:13 2401.200-2431.200
Oscar 19 31 Jul 03:25:45 03:29:47 23° 291° (WNW) 03:33:41 437.125/150
BEESAT 31 Jul 03:26:43 03:27:48 10° 270° (W) 03:28:31 436.000
JUGNU 31 Jul 03:28:43 03:31:49 14° 168° (SSE) 03:34:57 437.505
MOZHAYETS 4 31 Jul 03:40:34 03:43:44 19° 70° (ENE) 03:47:03
JAS-2 31 Jul 03:58:44 04:06:37 73° 101° (E) 04:14:18 435.910
HORYU 2 31 Jul 03:59:20 04:02:53 23° 95° (E) 04:06:32 437.375
AO-7 31 Jul 04:08:51 04:16:24 38° 98° (E) 04:24:01 29.400- 29.500
RS-15 31 Jul 04:09:00 04:14:46 15° 22° (NNE) 04:21:09 29.354- 29.394
STARS 31 Jul 04:10:51 04:14:44 31° 263° (W) 04:18:36 437.465
Cosmos 2504 31 Jul 04:11:24 04:17:49 35° 285° (WNW) 04:24:29 435.465 / 435.565
CUSAT 1 31 Jul 04:14:00 04:16:58 34° 98° (E) 04:19:33 437.405
Gurwin Techsat 1B 31 Jul 04:14:42 04:19:10 27° 290° (WNW) 04:23:31 435.225
ITAMSAT 1 31 Jul 04:44:54 04:48:02 16° 294° (WNW) 04:50:55 435.822/435.867
ISS 31 Jul 04:54:19 04:57:35 84° 42° (NE) 05:00:50 145.825
JUGNU 31 Jul 05:15:58 05:20:10 20° 177° (S) 05:24:23 437.505
MOZHAYETS 4 31 Jul 05:16:29 05:20:44 35° 263° (W) 05:24:58
SRMSAT 31 Jul 05:18:16 05:21:20 14° 168° (SSE) 05:24:28 437.500
DANDE 31 Jul 05:28:01 05:31:06 25° 279° (W) 05:33:39 436.750
CUBESAT XI-V 31 Jul 05:30:50 05:34:29 24° 71° (ENE) 05:38:15 437.345
HORYU 2 31 Jul 05:35:41 05:39:30 26° 289° (WNW) 05:43:11 437.375
JAS-2 31 Jul 05:45:13 05:50:58 22° 296° (WNW) 05:56:20 435.910
GONETS M04 31 Jul 05:56:23 06:04:37 50° 91° (E) 06:12:55
AO-7 31 Jul 06:01:31 06:09:13 42° 294° (WNW) 06:16:46 29.400- 29.500
CUTE-I 31 Jul 06:03:30 06:06:36 16° 92° (E) 06:09:57 437.470
RS-15 31 Jul 06:20:10 06:31:23 48° 51° (NE) 06:43:05 29.354- 29.394
Cosmos 2499 31 Jul 06:32:51 06:35:58 14° 81° (E) 06:39:44 435.465 / 435.565
Cubesat XI-IV 31 Jul 06:45:39 06:50:43 45° 99° (E) 06:55:48 437.490
PRISM 31 Jul 07:04:34 07:08:41 60° 75° (ENE) 07:12:49 437.425
JUGNU 31 Jul 07:04:37 07:08:33 18° 187° (S) 07:12:26 437.505
SRMSAT 31 Jul 07:05:38 07:09:51 20° 177° (S) 07:14:04 437.500
CUBESAT XI-V 31 Jul 07:07:45 07:11:49 28° 264° (W) 07:15:48 437.345
STRAND 1 31 Jul 07:10:05 07:15:14 84° 74° (ENE) 07:20:25 437.568
CUTE-I 31 Jul 07:41:53 07:47:02 50° 287° (WNW) 07:52:07 437.470
GONETS M04 31 Jul 07:54:19 08:01:48 30° 288° (WNW) 08:09:03
PCSat 31 Jul 08:04:05 08:06:43 14° 105° (ESE) 08:09:39 145.827
BRITE-PL 31 Jul 08:05:21 08:09:25 35° 98° (E) 08:13:46 437.365/2234.400
DOVE 4 31 Jul 08:16:11 08:19:01 16° 93° (E) 08:22:10 437.250
Cosmos 2499 31 Jul 08:20:50 08:28:06 81° 277° (W) 08:35:59 435.465 / 435.565
GOMX 1 31 Jul 08:21:34 08:25:37 31° 97° (E) 08:29:58 467.674
Cubesat XI-IV 31 Jul 08:26:44 08:30:31 19° 293° (WNW) 08:34:08 437.490
BEESAT 2 31 Jul 08:28:54 08:31:43 18° 51° (NE) 08:34:36 435.950
RS-15 31 Jul 08:32:44 08:44:00 48° 250° (WSW) 08:55:21 29.354- 29.394
AUBIESAT-1 31 Jul 08:34:17 08:36:35 15° 63° (ENE) 08:39:09 437.475
CINEMA 3 31 Jul 08:35:01 08:35:49 11° 90° (E) 08:37:00 145.822/145.860
HO-68 31 Jul 08:46:40 08:53:07 36° 98° (E) 08:59:40 435.675
SO-50 31 Jul 08:49:56 08:53:54 29° 112° (ESE) 08:58:05 436.795
SRMSAT 31 Jul 08:54:26 08:58:23 18° 187° (S) 09:02:18 437.500
JUGNU 31 Jul 08:55:49 08:56:54 10° 196° (SSW) 08:57:49 437.505
COMPASS 1 31 Jul 08:57:27 09:00:34 20° 94° (E) 09:03:47 437.405
BEESAT 3 31 Jul 09:09:22 09:13:23 68° 60° (ENE) 09:17:20 437.485
SEEDS 31 Jul 09:10:10 09:14:08 38° 98° (E) 09:18:07 437.485
CUTE 1.7 + AOD 2 31 Jul 09:11:15 09:15:27 51° 99° (E) 09:19:37 437.475
CUBEBUG 2 31 Jul 09:11:46 09:13:34 12° 90° (E) 09:15:40 437.445
Oscar 11 31 Jul 09:14:14 09:15:16 11° 90° (E) 09:16:35 145.826/435.025
CANX-2 31 Jul 09:19:24 09:23:43 75° 101° (E) 09:27:59 2200.000
ANTELSAT 31 Jul 09:27:25 09:27:50 10° 66° (ENE) 09:28:33 437.575/2403.000
DELFI C3 31 Jul 09:34:08 09:35:26 12° 91° (E) 09:36:59 145.870
M-CUBED/EXP-1 PRIME 31 Jul 09:36:38 09:40:30 78° 253° (WSW) 09:44:46 437.505
AAUSAT CUBESAT 2 31 Jul 09:38:57 09:43:06 57° 100° (E) 09:47:12 437.432
PCSat 31 Jul 09:44:20 09:49:40 61° 298° (WNW) 09:55:03 145.827
BRITE-PL 31 Jul 09:44:45 09:47:47 18° 289° (WNW) 09:50:47 437.365/2234.400
DOVE 4 31 Jul 09:52:32 09:56:55 41° 285° (WNW) 10:01:30 437.250
AIST 2 31 Jul 09:54:33 09:58:20 33° 55° (NE) 10:02:05 435.215
GOMX 1 31 Jul 10:00:08 10:03:38 21° 288° (WNW) 10:07:09 467.674
BEESAT 2 31 Jul 10:06:13 10:09:51 32° 247° (WSW) 10:13:24 435.950
AUBIESAT-1 31 Jul 10:07:18 10:10:57 37° 259° (W) 10:14:52 437.475
CINEMA 3 31 Jul 10:08:44 10:13:24 64° 284° (WNW) 10:18:15 145.822/145.860
ZACube-1 31 Jul 10:10:58 10:15:06 34° 97° (E) 10:19:18 437.345
UNISAT 6 31 Jul 10:15:03 10:19:02 38° 73° (ENE) 10:23:09 437.425
Cosmos 2499 31 Jul 10:20:39 10:22:57 11° 299° (WNW) 10:24:37 435.465 / 435.565
POLYITAN 1 31 Jul 10:22:37 10:25:13 17° 70° (ENE) 10:27:59 437.675
SO-50 31 Jul 10:30:18 10:34:26 28° 308° (NW) 10:38:35 436.795
UWE-3 31 Jul 10:32:21 10:36:59 83° 101° (E) 10:41:40 435.000/436.395/437.385
COMPASS 1 31 Jul 10:32:41 10:36:13 26° 288° (WNW) 10:39:40 437.405
FUNcube-1 31 Jul 10:32:48 10:37:18 61° 100° (E) 10:41:50 145.935
HO-68 31 Jul 10:34:20 10:40:49 37° 292° (WNW) 10:47:13 435.675
POPSAT HIP 1 31 Jul 10:39:10 10:42:36 25° 72° (ENE) 10:46:05 437.405
SRMSAT 31 Jul 10:45:45 10:46:54 10° 196° (SSW) 10:47:53 437.500
CUBEBUG 2 31 Jul 10:46:01 10:50:34 53° 285° (WNW) 10:55:10 437.445
QB50P2 31 Jul 10:46:15 10:49:59 32° 73° (ENE) 10:53:46 145.880/145.840
SEEDS 31 Jul 10:47:11 10:49:38 15° 291° (WNW) 10:51:52 437.485
Oscar 11 31 Jul 10:47:34 10:51:48 50° 285° (WNW) 10:56:00 145.826/435.025
O/OREOS (USA 219) 31 Jul 10:48:03 10:49:50 12° 57° (ENE) 10:51:53 437.305
BUGSAT 1 31 Jul 10:48:43 10:51:34 19° 71° (ENE) 10:54:31 437.445
AISAT 31 Jul 10:48:58 10:50:52 13° 91° (E) 10:53:02 437.250
CUTE 1.7 + AOD 2 31 Jul 10:49:27 10:50:57 11° 292° (WNW) 10:52:12 437.475
UKube-1 31 Jul 10:49:30 10:52:40 20° 95° (E) 10:55:58 .
TIGRISAT 31 Jul 10:58:28 11:02:44 64° 260° (W) 11:07:05 435.000
ANTELSAT 31 Jul 10:59:53 11:04:08 59° 260° (W) 11:08:30 437.575/2403.000
HUMSAT D 31 Jul 11:05:08 11:09:24 57° 100° (E) 11:13:40 437.325/437.525
50 SAT 31 Jul 11:06:42 11:09:55 24° 95° (E) 11:13:11 437.505
DELFI C3 31 Jul 11:06:56 11:10:45 41° 286° (WNW) 11:14:32 145.870
CUBEBUG 1 31 Jul 11:07:04 11:07:44 10° 90° (E) 11:08:42 437.445
DUCHIFAT 1 31 Jul 11:11:25 11:15:32 62° 76° (ENE) 11:19:41 145.980
QB50P1 31 Jul 11:13:57 11:18:07 71° 76° (ENE) 11:22:18 145.935-145.965
DX 1 31 Jul 11:15:24 11:19:35 47° 100° (E) 11:23:47 434.975-435.025
NANOSAT C BR1 31 Jul 11:15:33 11:19:42 73° 77° (ENE) 11:23:53 145.865
VELOX 1 31 Jul 11:26:32 11:30:33 35° 98° (E) 11:34:37 145.980
YUBILEINY 31 Jul 11:29:53 11:38:21 50° 78° (ENE) 11:46:52 435.215
AIST 2 31 Jul 11:33:51 11:36:40 17° 250° (WSW) 11:39:18 435.215
ESTCUBE 1 31 Jul 11:34:48 11:38:43 30° 96° (E) 11:42:42 437.505/2401.250
ZACube-1 31 Jul 11:47:59 11:51:14 19° 290° (WNW) 11:54:21 437.345
UNISAT 6 31 Jul 11:53:33 11:56:02 14° 269° (W) 11:58:20 437.425
POLYITAN 1 31 Jul 11:57:07 12:00:53 32° 263° (W) 12:04:39 437.675
Cosmos 2491 31 Jul 11:58:21 12:06:26 44° 89° (E) 12:14:36 435.465 / 435.565
AIST 1 31 Jul 12:03:28 12:07:40 50° 93° (E) 12:11:54
FUNcube-1 31 Jul 12:11:47 12:13:11 11° 292° (WNW) 12:14:19 145.935
POPSAT HIP 1 31 Jul 12:15:15 12:18:26 20° 266° (W) 12:21:32 437.405
QB50P2 31 Jul 12:23:17 12:25:59 16° 267° (W) 12:28:31 145.880/145.840
BUGSAT 1 31 Jul 12:23:28 12:26:54 25° 264° (W) 12:30:15 437.445
AISAT 31 Jul 12:23:31 12:27:43 44° 286° (WNW) 12:31:54 437.250
UKube-1 31 Jul 12:25:08 12:28:48 27° 289° (WNW) 12:32:25 .
O/OREOS (USA 219) 31 Jul 12:25:13 12:29:43 56° 253° (WSW) 12:34:12 437.305
